カタログに戻る

STARLINK-11101

運用中通信VLEO
NORAD 59715·PAYLOAD·🇺🇸 United States

打ち上げ May 10, 2024 から Vandenberg Space Force Base

Loading…

次のパス (今後24時間)

TLE

最新Source: CelesTrak SupGP

元期: Sep 15, 2026, 02:55 UTC

1 59715C 24088H   26258.12201389  .00072776  00000+0  59911-3 0  2582
2 59715  53.1557 112.3470 0001094  96.4651 347.9174 15.69687997    11

AllMySatでSTARLINK-11101をリアルタイム追跡

Download on the App Store